RS-39
1 38051U 11062C   14288.65876392  .70201582  12497-4  27925-2 0   413
2 38051 051.5964 324.1908 0006422 269.6897 186.8903 16.43533377153081
E-STAR
1 38079U 12006C   15016.13455217  .17990388  48979-5  52837-3 0  2142
2 38079 069.3967 125.0648 0013168 047.0341 316.5109 16.44007688156194
GOLIAT
1 38085U 12006J   15029.44338731  .00514975  95184-4  13725-2 0  7746
2 38085 069.4216 103.1903 0130474 019.5029 087.1376 15.81352336157862
HORYU-2
1 38340U 12025D   15029.15988978  .00001854  00000-0  29222-3 0   810
2 38340 098.2964 355.7147 0012385 172.3474 187.7925 14.73642063145057
RS-40
1 38735U 12041C   15029.37970202  .00000040  00000-0  21992-3 0  9902
2 38735 082.4785 146.5272 0017676 123.6210 236.6560 12.42567043113671
PROITERES
1 38756U 12047B   15029.53575631  .00000774  00000-0  12151-3 0  6353
2 38756 098.2203 126.5376 0012866 026.2185 333.9678 14.75504441128557
BEESAT-3
1 39134U 13015E   15029.15509681  .00010636  00000-0  66320-3 0  8403
2 39134 064.8742 141.4817 0035353 271.7323 087.9750 15.09412768 97693
BEESAT-2
1 39136U 13015G   15028.81368688  .00007127  00000-0  46307-3 0  8131
2 39136 064.8744 143.9790 0035759 271.6675 088.0351 15.08220805 97623
LO-75
1 39382U 13064C   14295.69194059  .07301741  00000-0  36367-2 0  4875
2 39382 040.4713 030.2705 0002289 341.7175 018.4586 16.19795749470823
ZACUBE-1
1 39417U 13066B   15027.99207849  .00001456  00000-0  19770-3 0  5251
2 39417 097.7485 095.6969 0060413 231.9750 127.5999 14.79109336 63904
TRITON-1
1 39427U 13066M   15029.21799987  .00001395  00000-0  23814-3 0  3780
2 39427 097.7349 088.0445 0115673 250.2099 108.6604 14.66180241 63495
DELFIN3XT
1 39428U 13066N   15028.40652620  .00002288  00000-0  39308-3 0  3803
2 39428 097.7355 085.8725 0124824 256.8359 101.8893 14.64590776 63275
GOMX-1
1 39430U 13066Q   15029.43073360  .00001150  00000-0  22424-3 0  2074
2 39430 097.7279 082.4559 0153596 266.6968 091.6664 14.57594569 63160
MO-76
1 39436U 13066W   15028.66716337  .00017840  00000-0  14629-2 0  4805
2 39436 097.7547 104.7056 0023239 217.5412 142.4189 14.99089823 64530
LO-74
1 39440U 13066AA  15027.98098434  .00001395  00000-0  20886-3 0  3715
2 39440 097.7436 092.1966 0082042 239.9882 119.3168 14.73971490 63674
PUCPSAT-1
1 39442U 13066AC  15028.83549919  .00002445  00000-0  27221-3 0  3752
2 39442 097.7556 102.0333 0033126 221.1219 138.7501 14.87638300 63147
SHINAISAT
1 39572U 14009A   14328.13084988  .28848087  76253-5  66603-3 0  4474
2 39572 064.9728 197.0096 0013534 259.7861 100.1802 16.45181032 42403
TEIKYOSAT
1 39576U 14009E   14297.85867254  .09345816  76764-5  25176-3 0  4374
2 39576 064.9818 300.5833 0008491 317.3597 044.3862 16.45008906 37698
CO-77
1 39577U 14009F   14244.78324653  .10543803  76292-5  32273-3 0  3795
2 39577 064.9920 123.7668 0014904 269.7208 091.1897 16.43552757 29380
SPROUT
1 39770U 14029E   15028.77467130  .00001486  00000-0  18773-3 0  2657
2 39770 097.8702 127.5730 0008824 300.1262 059.9094 14.83355890 36968
POPSAT-HIP1
1 40028U 14033U   15029.47145498  .00001803  00000-0  21105-3 0  6827
2 40028 097.9682 289.5408 0013335 278.4697 081.5026 14.86265830 33170
EO-80
1 40032U 14033Y   15029.30570073  .00002016  00000-0  23685-3 0  6625
2 40032 097.9633 289.1817 0011387 274.5690 085.4222 14.86002607 33156
VELOX-1
1 40057U 14034E   15029.52113068  .00001771  00000-0  27043-3 0  6757
2 40057 098.2288 105.3458 0010930 326.3589 033.6929 14.75090952 31435
DAURIA DX 1
1 40071U 14037C   15029.55256015  .00000823  00000-0  11628-3 0  6455
2 40071 098.3748 095.1844 0008056 331.1581 028.9195 14.80037938 30285
UKUBE-1
1 40074U 14037F   15029.53802150  .00001697  00000-0  22409-3 0  6463
2 40074 098.3758 095.5556 0004538 345.2804 014.8291 14.81448896 30302
CHASQUI-1
1 40117U 98067ET  15014.73322295  .07508583  12315-4  10026-2 0  4726
2 40117 051.6189 112.4445 0004239 337.2783 022.7551 16.34635278 23368
HODOYOSHI-1
1 40299U 14070B   15029.52528368  .00003285  00000-0  16497-3 0  2601
2 40299 097.4669 112.8447 0012117 255.6045 229.3346 15.17934581 12762
CHUBUSAT-1
1 40300U 14070C   15029.50881659  .00004423  00000-0  23280-3 0  2611
2 40300 097.4638 112.5398 0021832 255.9962 230.1926 15.15946679 12750
QSAT-EOS
1 40301U 14070D   15029.50488550  .00008045  00000-0  44063-3 0  2813
2 40301 097.4607 112.2116 0033107 255.6142 230.8908 15.14007663 12732
TSUBAME
1 40302U 14070E   15029.68613676  .00006538  00000-0  38403-3 0  2559
2 40302 097.4586 112.0427 0043493 255.6800 103.9657 15.11240056 12735
